Weather History for Luxor, Egypt

Change the Weather History Date:

Thursday, December 20, 2012

  Actual Average Record
Temperature  
Mean Temperature 60 °F -  
Max Temperature 73 °F 71 °F 82 °F (1999)
Min Temperature 46 °F 45 °F 41 °F (1998)
Degree Days  
Heating Degree Days 6    
Growing Degree Days 10 (Base 50)    
Moisture  
Dew Point 41 °F    
Average Humidity 51    
Maximum Humidity 63    
Minimum Humidity 31    
Precipitation  
Precipitation 0.00 in 0.00 in - ()
Sea Level Pressure  
Sea Level Pressure 29.99 in    
Wind  
Wind Speed 3 mph ()    
Max Wind Speed 12 mph    
Max Gust Speed -    
Visibility 6.0 miles    
Events      
Averages and records for this station are not official NWS values.
T = Trace of Precipitation, MM = Missing Value Source: Averaged Metar Reports

Daily Weather History Graph

Daily Weather History Graph

Search for Another Location

Airport:

Trip Planner

Search our weather history database for the weather conditions in past years. The results will help you decide how hot, cold, wet, or windy it might be!

Date:

Astronomy

Dec. 20, 2012 Rise Set
Actual Time 6:30 AM EET 5:03 PM EET
Civil Twilight 6:05 AM EET 5:28 PM EET
Nautical Twilight 5:36 AM EET 5:56 PM EET
Astronomical Twilight 5:08 AM EET 6:25 PM EET
Moon 11:41 AM EET (12/20) No Moon Set
Length of Visible Light 11h 22m
Length of Day
10h 32m
First Quarter, 52% of the Moon is Illuminated
Dec 20
First Quarter
Dec 28
Full
Jan 5
Last Quarter
Jan 11
New
Jan 19
First Quarter

Hourly Weather History & Observations

Time (EET) Temp. Dew Point Humidity Pressure Visibility Wind Dir Wind Speed Gust Speed Precip Events Conditions
12:00 AM 55.4 °F 37.4 °F 51% 30.01 in - South 2.3 mph - N/A   Clear
1:00 AM 55.4 °F 35.6 °F 47% 30.01 in - Calm Calm - N/A   Clear
2:00 AM 54 °F 36 °F 38% 29.99 in 6 mi South 2.3 mph - -  
2:00 AM 53.6 °F 35.6 °F 51% 29.98 in - South 2.3 mph - N/A   Clear
3:00 AM 51.8 °F 35.6 °F 54% 29.98 in - SSE 2.3 mph - N/A   Clear
4:00 AM 51.8 °F 37.4 °F 58% 30.01 in - Calm Calm - N/A   Clear
5:00 AM 50.0 °F 35.6 °F 58% 29.98 in - SSE 3.5 mph - N/A   Clear
6:00 AM 50.0 °F 35.6 °F 58% 30.01 in - Calm Calm - N/A   Clear
7:00 AM 51.8 °F 35.6 °F 54% 30.01 in - South 2.3 mph - N/A   Clear
8:00 AM 53 °F 37 °F 43% 30.04 in 6 mi Calm Calm - -  
8:00 AM 53.6 °F 37.4 °F 54% 30.04 in - Calm Calm - N/A   Clear
9:00 AM 62.6 °F 44.6 °F 52% 30.04 in - SSW 2.3 mph - N/A   Clear
10:00 AM 68.0 °F 46.4 °F 46% 30.04 in - Calm Calm - N/A   Clear
11:00 AM 69.8 °F 48.2 °F 46% 30.04 in - WSW 4.6 mph - N/A   Clear
12:00 PM 50.0 °F 35.6 °F 58% 29.98 in - SSE 3.5 mph - N/A   Clear
1:00 PM 50.0 °F 35.6 °F 58% 29.98 in - SSE 3.5 mph - N/A   Clear
2:00 PM 73 °F 49 °F 31% 29.95 in 6 mi West 11.5 mph - -   Scattered Clouds
2:00 PM 73.4 °F 48.2 °F 41% 29.95 in 6.2 mi West 11.5 mph - N/A   Unknown
3:00 PM 71.6 °F 46.4 °F 41% 29.95 in - WNW 11.5 mph - N/A   Clear
4:00 PM 71.6 °F 46.4 °F 41% 29.95 in - West 9.2 mph - N/A   Clear
5:00 PM 68.0 °F 46.4 °F 46% 29.95 in - WNW 4.6 mph - N/A   Clear
6:00 PM 64.4 °F 46.4 °F 52% 29.95 in - WNW 3.5 mph - N/A   Clear
7:00 PM 62.6 °F 46.4 °F 55% 29.98 in - WSW 2.3 mph - N/A   Clear
8:00 PM 61 °F 45 °F 45% 29.99 in 6 mi SW 2.3 mph - -  
8:00 PM 60.8 °F 44.6 °F 55% 29.98 in - SW 2.3 mph - N/A   Clear
9:00 PM 57.2 °F 44.6 °F 63% 29.98 in - WSW 3.5 mph - N/A   Clear
10:00 PM 59.0 °F 42.8 °F 55% 30.01 in - SW 3.5 mph - N/A   Clear
11:00 PM 55.4 °F 42.8 °F 63% 30.01 in - WSW 4.6 mph - N/A   Clear